Flag for Lithuania Weather past 2 weeks in Kaunas, Lithuania

Now
39 °F

Light rain. Fog.


Feels Like: 34 °F
Forecast: 36 / 41 °F
Wind: 8 mph from South

Location: Kaunas

Current Time: Mar 2, 2015 at 6:40:52 AM

Latest Report: Mar 2, 2015 at 6:20 AM


Visibility: 3 mi

Pressure: 29.53 "Hg

Humidity: 93%

Dew point: 37 °F

Location of KaunasLocation

Historic Weather in Kaunas — Graph

°F

Kaunas temperature yesterday

Maximum temperature yesterday: 45 °F (at 2:50 PM)
Minimum temperature yesterday: 34 °F (at 12:20 AM)
Average temperature yesterday: 39 °F

Past Weeks' High & Low Weather Summary

 TemperatureHumidityPressure
High45 °F (Feb 21, 12:50 PM)100% (Feb 15, 5:20 AM)30.77 "Hg (Feb 15, 5:20 AM)
Low16 °F (Feb 16, 7:20 AM)19% (Feb 16, 2:50 PM)29.53 "Hg (Feb 21, 7:20 PM)
Average35 °F73%30.07 "Hg
* Reported Feb 15 5:20 AM — Mar 2 5:50 AM, Kaunas, Weather by CustomWeather, © 2015

Note: Actual official high and low records may vary slightly from our data, if they occured in-between our weather recording intervals... More about our weather records

Advertising

Kaunas weather history for previous 24 hours

 ConditionsComfort  
Time TempWeatherWind HumidityBarometerVisibility
5:50 AM
Mon, Mar 2
39 °FLight rain. Fog.9 mph93%29.53 "Hg3 mi
5:20 AM41 °FLight rain. Fog.9 mph87%29.53 "Hg2 mi
4:50 AM41 °FLight rain. Low clouds.9 mph87%29.56 "Hg4 mi
4:20 AM41 °FMostly cloudy.8 mph81%29.56 "Hg4 mi
3:50 AM41 °FMostly cloudy.8 mph81%29.56 "Hg4 mi
3:20 AM39 °FOvercast.9 mph87%29.59 "Hg5 mi
2:52 AM39 °FSprinkles. Mostly cloudy.10 mph87%29.59 "Hg6 mi
2:20 AM39 °FMostly cloudy.9 mph87%29.62 "HgN/A
1:50 AM39 °FOvercast.9 mph87%29.62 "HgN/A
1:20 AM41 °FLight rain. Overcast.9 mph81%29.62 "HgN/A
1:02 AM39 °FMostly cloudy.9 mph87%29.65 "HgN/A
12:20 AM41 °FMostly cloudy.8 mph81%29.65 "HgN/A
11:50 PM
Sun, Mar 1
41 °FMostly cloudy.9 mph81%29.68 "HgN/A
11:20 PM41 °FPassing clouds.9 mph81%29.68 "HgN/A
10:50 PM41 °FPassing clouds.12 mph76%29.68 "HgN/A
10:20 PM41 °FPassing clouds.10 mph76%29.71 "HgN/A
9:20 PM39 °FClear.7 mph87%29.74 "Hg5 mi
8:50 PM41 °FFog.6 mph81%29.74 "Hg3 mi
8:20 PM41 °FFog.7 mph81%29.74 "Hg3 mi
7:50 PM39 °FFog.9 mph87%29.77 "Hg2 mi
7:20 PM41 °FFog.9 mph81%29.77 "Hg2 mi
6:50 PM41 °FFog.10 mph81%29.77 "Hg2 mi
6:20 PM41 °FFog.10 mph81%29.77 "Hg2 mi
5:50 PM41 °FFog.10 mph81%29.80 "Hg2 mi
5:20 PM41 °FFog.9 mph76%29.80 "Hg3 mi
4:50 PM43 °FClear.8 mph66%29.80 "Hg4 mi
4:20 PM45 °FPassing clouds.9 mph57%29.83 "HgN/A
3:50 PM45 °FPassing clouds.8 mph57%29.83 "HgN/A
3:20 PM45 °FPassing clouds.9 mph57%29.86 "HgN/A
2:50 PM45 °FPassing clouds.12 mph57%29.86 "HgN/A
2:20 PM43 °FScattered clouds.12 mph61%29.89 "HgN/A
1:50 PM43 °FScattered clouds.12 mph61%29.89 "HgN/A
1:20 PM43 °FScattered clouds.12 mph66%29.92 "HgN/A
12:50 PM43 °FScattered clouds.10 mph61%29.92 "HgN/A
12:20 PM43 °FScattered clouds.9 mph66%29.92 "Hg6 mi
11:50 AM41 °FFog.8 mph76%29.95 "Hg3 mi
11:20 AM39 °FFog.10 mph87%29.95 "Hg2 mi
10:50 AM37 °FDrizzle. Fog.7 mph93%29.95 "Hg1 mi
10:20 AM37 °FFog.7 mph93%29.95 "Hg1 mi
9:50 AM37 °FFog.6 mph93%29.98 "Hg1 mi
9:20 AM37 °FFog.8 mph93%29.98 "Hg0 mi
8:50 AM37 °FFog.6 mph93%29.98 "Hg0 mi
8:20 AM37 °FFog.6 mph93%29.98 "Hg0 mi
7:50 AM37 °FFog.6 mph93%29.98 "Hg1 mi
7:20 AM37 °FFog.6 mph93%29.98 "Hg1 mi
6:50 AM37 °FFog.6 mph87%29.98 "Hg2 mi
6:20 AM37 °FFog.6 mph87%29.98 "Hg2 mi
Weather by CustomWeather, © 2015

See weather overviewHow to use our weather pages